sat.trackr.live / text

‹ back to catalog

STARLINK-32587

NORAD 62180 · 2024-225T

PAYLOAD ACTIVE UNKNOWN

§ Identity

Operator
Country
US
Launch date
2024-11-30
Launch site
AFWTR
Launch vehicle
Mass (kg)
RCS (m²)

Purposes: comms

External: N2YO · Heavens-Above · Gunter

§ Orbital elements

Epoch: 2026-09-21T01:42:20.282112Z

Period
96.11 min
Inclination
70.0034°
Eccentricity
0.0002993
Mean motion
14.98342342 rev/d
Perigee alt
569.9 km
Apogee alt
574.1 km
Semi-major
6,950.2 km
B*
7.0789e-4
RAAN
31.6457°
Arg perigee
250.9746°
Mean anomaly
109.1089°
Rev number
9,914

§ Raw data

STARLINK-325871 62180U 24225T   26264.07106808  .00008366  00000+0  70789-3 0  99982 62180  70.0034  31.6457 0002993 250.9746 109.1089 14.98342342 99146

JSON: /api/v1/satellites/62180 · /tle

For live sub-satellite position, see the globe view (requires WebGL).

§ Visibility from observer

Set your observer location to see the next 7 days of passes ≥ 10°. The values pass through the URL so the page stays shareable.

No JS? Fill the form by hand. The geolocation button needs JavaScript.